Time,TemperatureF,DewpointF,PressureIn,WindDirection,WindDirectionDegrees,WindSpeedMPH,WindSpeedGustMPH,Humidity,HourlyPrecipIn,Conditions,Clouds,dailyrainin,SoftwareType,DateUTC
2014-01-28 00:02:00,-8.5,-16.5,29.56,NW,315,4.6,4.6,67,0.00,CLR,,0.00,WeatherDisplay:10.37,2014-01-28 06:02:00,
2014-01-28 00:07:00,-8.0,-16.0,29.56,WNW,292,4.9,4.9,67,0.00,CLR,,0.00,WeatherDisplay:10.37,2014-01-28 06:07:00,
2014-01-28 00:12:00,-8.3,-16.4,29.56,WSW,248,3.5,3.5,67,0.00,CLR,,0.00,WeatherDisplay:10.37,2014-01-28 06:12:00,
2014-01-28 00:17:00,-8.3,-16.4,29.53,WNW,292,4.9,4.9,67,0.00,CLR,,0.00,WeatherDisplay:10.37,2014-01-28 06:17:00,
2014-01-28 00:22:00,-8.3,-16.4,29.53,WNW,292,5.8,5.8,67,0.00,CLR,,0.00,WeatherDisplay:10.37,2014-01-28 06:22:00,
2014-01-28 00:27:00,-8.3,-16.4,29.53,WNW,292,4.6,4.6,67,0.00,CLR,,0.00,WeatherDisplay:10.37,2014-01-28 06:27:00,
2014-01-28 00:32:00,-8.5,-16.5,29.50,WNW,292,4.6,4.6,67,0.00,CLR,,0.00,WeatherDisplay:10.37,2014-01-28 06:32:00,
2014-01-28 00:37:00,-8.5,-16.5,29.50,WNW,292,4.6,4.6,67,0.00,CLR,,0.00,WeatherDisplay:10.37,2014-01-28 06:37:00,
2014-01-28 00:42:00,-8.7,-16.7,29.50,NW,315,3.5,3.5,67,0.00,CLR,,0.00,WeatherDisplay:10.37,2014-01-28 06:42:00,
2014-01-28 00:47:00,-8.5,-16.5,29.53,NW,315,3.6,3.6,67,0.00,CLR,,0.00,WeatherDisplay:10.37,2014-01-28 06:47:00,
2014-01-28 00:52:00,-8.5,-16.5,29.53,WNW,292,4.6,4.6,67,0.00,CLR,,0.00,WeatherDisplay:10.37,2014-01-28 06:52:00,
2014-01-28 00:57:00,-8.9,-16.9,29.53,NW,315,4.7,4.7,67,0.00,CLR,,0.00,WeatherDisplay:10.37,2014-01-28 06:57:00,
2014-01-28 01:02:00,-8.5,-16.5,29.53,WNW,292,5.8,5.8,67,0.00,CLR,,0.00,WeatherDisplay:10.37,2014-01-28 07:02:00,
2014-01-28 01:07:00,-8.5,-16.5,29.53,WNW,292,4.6,4.6,67,0.00,CLR,,0.00,WeatherDisplay:10.37,2014-01-28 07:07:00,
2014-01-28 01:12:00,-8.3,-16.4,29.53,NW,315,6.4,6.4,67,0.00,CLR,,0.00,WeatherDisplay:10.37,2014-01-28 07:12:00,
2014-01-28 01:17:00,-8.7,-16.7,29.50,WNW,292,4.6,4.6,67,0.00,CLR,,0.00,WeatherDisplay:10.37,2014-01-28 07:17:00,
2014-01-28 01:22:00,-8.7,-16.7,29.50,WNW,292,4.6,4.6,67,0.00,CLR,,0.00,WeatherDisplay:10.37,2014-01-28 07:22:00,
2014-01-28 01:27:00,-9.0,-17.0,29.50,WNW,292,3.5,3.5,67,0.00,CLR,,0.00,WeatherDisplay:10.37,2014-01-28 07:27:00,
2014-01-28 01:32:00,-9.0,-17.0,29.50,WSW,248,4.9,4.9,67,0.00,CLR,,0.00,WeatherDisplay:10.37,2014-01-28 07:32:00,
2014-01-28 01:37:00,-9.0,-17.0,29.50,WNW,292,4.6,4.6,67,0.00,CLR,,0.00,WeatherDisplay:10.37,2014-01-28 07:37:00,
2014-01-28 01:42:00,-9.2,-17.2,29.50,WSW,248,3.5,3.5,67,0.00,CLR,,0.00,WeatherDisplay:10.37,2014-01-28 07:42:00,
2014-01-28 01:47:00,-9.6,-17.6,29.47,West,270,2.3,2.3,67,0.00,CLR,,0.00,WeatherDisplay:10.37,2014-01-28 07:47:00,
2014-01-28 01:52:00,-9.8,-17.7,29.47,WNW,292,2.6,2.6,67,0.00,CLR,,0.00,WeatherDisplay:10.37,2014-01-28 07:52:00,
2014-01-28 01:57:00,-9.8,-17.7,29.47,West,270,2.3,2.3,67,0.00,CLR,,0.00,WeatherDisplay:10.37,2014-01-28 07:57:00,
2014-01-28 02:02:00,-10.3,-18.3,29.50,WSW,248,2.4,2.4,67,0.00,CLR,,0.00,WeatherDisplay:10.37,2014-01-28 08:02:00,
2014-01-28 02:07:00,-10.7,-18.6,29.50,WSW,248,0.0,0.0,67,0.00,CLR,,0.00,WeatherDisplay:10.37,2014-01-28 08:07:00,
2014-01-28 02:12:00,-11.0,-18.9,29.50,WSW,248,2.3,2.3,67,0.00,CLR,,0.00,WeatherDisplay:10.37,2014-01-28 08:12:00,
2014-01-28 02:17:00,-11.4,-19.3,29.50,WSW,248,2.9,2.9,67,0.00,CLR,,0.00,WeatherDisplay:10.37,2014-01-28 08:17:00,
2014-01-28 02:22:00,-11.0,-18.9,29.50,WNW,292,3.5,3.5,67,0.00,CLR,,0.00,WeatherDisplay:10.37,2014-01-28 08:22:00,
2014-01-28 02:27:00,-11.2,-19.1,29.50,WNW,292,4.6,4.6,67,0.00,CLR,,0.00,WeatherDisplay:10.37,2014-01-28 08:27:00,
2014-01-28 02:32:00,-11.0,-18.9,29.50,NNW,338,2.4,2.4,67,0.00,CLR,,0.00,WeatherDisplay:10.37,2014-01-28 08:32:00,
2014-01-28 02:37:00,-10.1,-18.1,29.50,WSW,248,2.6,2.6,67,0.00,CLR,,0.00,WeatherDisplay:10.37,2014-01-28 08:37:00,
2014-01-28 02:42:00,-10.7,-18.6,29.50,NNW,338,2.3,2.3,67,0.00,CLR,,0.00,WeatherDisplay:10.37,2014-01-28 08:42:00,
2014-01-28 02:47:00,-11.6,-19.5,29.50,WSW,248,1.4,0.0,67,0.00,CLR,,0.00,WeatherDisplay:10.37,2014-01-28 08:47:00,
2014-01-28 02:52:00,-11.7,-19.6,29.50,WNW,292,2.3,2.3,67,0.00,CLR,,0.00,WeatherDisplay:10.37,2014-01-28 08:52:00,
2014-01-28 02:57:00,-11.6,-19.5,29.50,WNW,292,3.5,3.5,67,0.00,CLR,,0.00,WeatherDisplay:10.37,2014-01-28 08:57:00,
2014-01-28 03:02:00,-12.3,-20.2,29.50,SSE,158,1.4,0.0,67,0.00,CLR,,0.00,WeatherDisplay:10.37,2014-01-28 09:02:00,
2014-01-28 03:07:00,-11.9,-19.8,29.50,SW,225,1.6,1.6,67,0.00,CLR,,0.00,WeatherDisplay:10.37,2014-01-28 09:07:00,
2014-01-28 03:12:00,-11.9,-19.8,29.50,West,270,1.4,1.4,67,0.00,CLR,,0.00,WeatherDisplay:10.37,2014-01-28 09:12:00,
2014-01-28 03:17:00,-12.3,-20.2,29.50,West,270,1.4,0.0,67,0.00,CLR,,0.00,WeatherDisplay:10.37,2014-01-28 09:17:00,
2014-01-28 03:22:00,-12.3,-20.2,29.50,SW,225,1.4,1.4,67,0.00,CLR,,0.00,WeatherDisplay:10.37,2014-01-28 09:22:00,
2014-01-28 03:27:00,-12.6,-20.5,29.50,SW,225,1.4,0.0,67,0.00,CLR,,0.00,WeatherDisplay:10.37,2014-01-28 09:27:00,
2014-01-28 03:32:00,-12.5,-20.3,29.50,West,270,1.2,1.2,67,0.00,CLR,,0.00,WeatherDisplay:10.37,2014-01-28 09:32:00,
2014-01-28 03:37:00,-12.3,-20.2,29.50,West,270,2.3,2.3,67,0.00,CLR,,0.00,WeatherDisplay:10.37,2014-01-28 09:37:00,
2014-01-28 03:42:00,-12.6,-20.5,29.50,WSW,248,3.5,3.5,67,0.00,CLR,,0.00,WeatherDisplay:10.37,2014-01-28 09:42:00,
2014-01-28 03:47:00,-12.8,-20.7,29.50,West,270,2.3,2.3,67,0.00,CLR,,0.00,WeatherDisplay:10.37,2014-01-28 09:47:00,
2014-01-28 03:52:00,-12.8,-20.7,29.50,WSW,248,2.3,2.3,67,0.00,CLR,,0.00,WeatherDisplay:10.37,2014-01-28 09:52:00,
2014-01-28 03:59:00,-12.8,-20.7,29.47,SW,225,2.3,2.3,67,0.00,CLR,,0.00,WeatherDisplay:10.37,2014-01-28 09:59:00,
2014-01-28 04:04:00,-12.8,-20.7,29.47,West,270,1.6,0.0,67,0.00,CLR,,0.00,WeatherDisplay:10.37,2014-01-28 10:04:00,
2014-01-28 04:09:00,-12.8,-20.7,29.47,West,270,2.3,2.3,67,0.00,CLR,,0.00,WeatherDisplay:10.37,2014-01-28 10:09:00,
2014-01-28 04:14:00,-13.0,-20.8,29.47,WSW,248,2.3,2.3,67,0.00,CLR,,0.00,WeatherDisplay:10.37,2014-01-28 10:14:00,
2014-01-28 04:19:00,-13.0,-20.8,29.47,SW,225,1.2,1.2,67,0.00,CLR,,0.00,WeatherDisplay:10.37,2014-01-28 10:19:00,
2014-01-28 04:24:00,-12.8,-20.7,29.47,SSW,202,2.3,2.3,67,0.00,CLR,,0.00,WeatherDisplay:10.37,2014-01-28 10:24:00,
2014-01-28 04:29:00,-11.9,-19.8,29.50,SSW,202,2.3,2.3,67,0.00,CLR,,0.00,WeatherDisplay:10.37,2014-01-28 10:29:00,
2014-01-28 04:34:00,-12.1,-20.0,29.50,WSW,248,1.2,1.2,67,0.00,CLR,,0.00,WeatherDisplay:10.37,2014-01-28 10:34:00,
2014-01-28 04:39:00,-11.9,-19.8,29.50,WNW,292,1.2,1.2,67,0.00,CLR,,0.00,WeatherDisplay:10.37,2014-01-28 10:39:00,
2014-01-28 04:44:00,-11.7,-19.6,29.50,WSW,248,2.3,2.3,67,0.00,CLR,,0.00,WeatherDisplay:10.37,2014-01-28 10:44:00,
2014-01-28 04:49:00,-12.3,-20.2,29.50,WSW,248,2.4,2.4,67,0.00,CLR,,0.00,WeatherDisplay:10.37,2014-01-28 10:49:00,
2014-01-28 04:54:00,-12.6,-20.5,29.50,WSW,248,2.3,2.3,67,0.00,CLR,,0.00,WeatherDisplay:10.37,2014-01-28 10:54:00,
2014-01-28 04:59:00,-12.5,-20.3,29.47,NW,315,1.2,0.0,67,0.00,CLR,,0.00,WeatherDisplay:10.37,2014-01-28 10:59:00,
2014-01-28 05:04:00,-12.5,-20.3,29.47,SSW,202,2.0,2.0,67,0.00,CLR,,0.00,WeatherDisplay:10.37,2014-01-28 11:04:00,
2014-01-28 05:09:00,-11.6,-19.5,29.47,SSW,202,2.3,2.3,67,0.00,CLR,,0.00,WeatherDisplay:10.37,2014-01-28 11:09:00,
2014-01-28 05:14:00,-11.6,-19.5,29.50,WSW,248,1.6,2.0,67,0.00,CLR,,0.00,WeatherDisplay:10.37,2014-01-28 11:14:00,
2014-01-28 05:19:00,-12.5,-20.3,29.50,SSW,202,2.2,0.0,67,0.00,CLR,,0.00,WeatherDisplay:10.37,2014-01-28 11:19:00,
2014-01-28 05:24:00,-11.9,-19.8,29.50,SSW,202,2.3,2.3,67,0.00,CLR,,0.00,WeatherDisplay:10.37,2014-01-28 11:24:00,
2014-01-28 05:29:00,-11.9,-19.8,29.50,WNW,292,1.2,0.0,67,0.00,CLR,,0.00,WeatherDisplay:10.37,2014-01-28 11:29:00,
2014-01-28 05:34:00,-12.6,-20.5,29.50,South,180,2.6,0.0,67,0.00,CLR,,0.00,WeatherDisplay:10.37,2014-01-28 11:34:00,
2014-01-28 05:39:00,-12.5,-20.3,29.50,SSW,202,2.3,2.3,67,0.00,CLR,,0.00,WeatherDisplay:10.37,2014-01-28 11:39:00,
2014-01-28 05:44:00,-12.6,-20.5,29.50,WNW,292,1.2,1.2,67,0.00,CLR,,0.00,WeatherDisplay:10.37,2014-01-28 11:44:00,
2014-01-28 05:49:00,-12.3,-20.2,29.50,WNW,292,0.0,0.0,67,0.00,CLR,,0.00,WeatherDisplay:10.37,2014-01-28 11:49:00,
2014-01-28 05:54:00,-12.8,-20.7,29.50,WNW,292,2.9,0.0,67,0.00,CLR,,0.00,WeatherDisplay:10.37,2014-01-28 11:54:00,
2014-01-28 05:59:00,-12.8,-20.7,29.50,South,180,1.2,0.0,67,0.00,CLR,,0.00,WeatherDisplay:10.37,2014-01-28 11:59:00,
2014-01-28 06:04:00,-13.0,-20.8,29.50,SW,225,0.0,0.0,67,0.00,CLR,,0.00,WeatherDisplay:10.37,2014-01-28 12:04:00,
2014-01-28 06:09:00,-13.0,-20.8,29.50,SSW,202,1.2,0.0,67,0.00,CLR,,0.00,WeatherDisplay:10.37,2014-01-28 12:09:00,
2014-01-28 06:14:00,-12.5,-20.3,29.50,SW,225,2.3,2.3,67,0.00,CLR,,0.00,WeatherDisplay:10.37,2014-01-28 12:14:00,
2014-01-28 06:19:00,-12.6,-20.5,29.50,SSW,202,2.3,2.3,67,0.00,CLR,,0.00,WeatherDisplay:10.37,2014-01-28 12:19:00,
2014-01-28 06:24:00,-12.8,-20.7,29.50,SW,225,2.3,2.3,67,0.00,CLR,,0.00,WeatherDisplay:10.37,2014-01-28 12:24:00,
2014-01-28 06:29:00,-12.6,-20.5,29.50,WNW,292,3.1,3.1,67,0.00,CLR,,0.00,WeatherDisplay:10.37,2014-01-28 12:29:00,
2014-01-28 06:34:00,-12.8,-20.7,29.50,West,270,2.3,2.3,67,0.00,CLR,,0.00,WeatherDisplay:10.37,2014-01-28 12:34:00,
2014-01-28 06:39:00,-12.6,-20.5,29.50,SSW,202,2.3,2.3,67,0.00,CLR,,0.00,WeatherDisplay:10.37,2014-01-28 12:39:00,
2014-01-28 06:44:00,-12.5,-20.3,29.50,SW,225,1.2,0.0,67,0.00,CLR,,0.00,WeatherDisplay:10.37,2014-01-28 12:44:00,
2014-01-28 06:49:00,-12.6,-20.5,29.50,SSW,202,1.6,1.6,67,0.00,CLR,,0.00,WeatherDisplay:10.37,2014-01-28 12:49:00,
2014-01-28 06:54:00,-12.3,-20.2,29.50,SSW,202,1.4,0.0,67,0.00,CLR,,0.00,WeatherDisplay:10.37,2014-01-28 12:54:00,
2014-01-28 06:59:00,-12.6,-20.5,29.50,WSW,248,1.2,1.2,67,0.00,CLR,,0.00,WeatherDisplay:10.37,2014-01-28 12:59:00,
2014-01-28 07:04:00,-13.0,-20.8,29.50,SW,225,2.3,2.3,67,0.00,CLR,,0.00,WeatherDisplay:10.37,2014-01-28 13:04:00,
2014-01-28 07:09:00,-12.8,-20.7,29.50,West,270,2.3,2.3,67,0.00,CLR,,0.00,WeatherDisplay:10.37,2014-01-28 13:09:00,
2014-01-28 07:14:00,-13.0,-20.8,29.53,WSW,248,2.3,2.3,67,0.00,CLR,,0.00,WeatherDisplay:10.37,2014-01-28 13:14:00,
2014-01-28 07:19:00,-13.0,-20.8,29.53,West,270,2.3,2.3,67,0.00,CLR,,0.00,WeatherDisplay:10.37,2014-01-28 13:19:00,
2014-01-28 07:25:00,-13.0,-20.8,29.53,SSW,202,4.6,0.0,67,0.00,CLR,,0.00,WeatherDisplay:10.37,2014-01-28 13:25:00,
2014-01-28 07:30:00,-12.8,-20.7,29.53,WNW,292,2.0,2.0,67,0.00,CLR,,0.00,WeatherDisplay:10.37,2014-01-28 13:30:00,
2014-01-28 07:35:00,-12.6,-20.5,29.53,West,270,2.3,2.3,67,0.00,CLR,,0.00,WeatherDisplay:10.37,2014-01-28 13:35:00,
2014-01-28 07:40:00,-12.6,-20.5,29.53,West,270,1.2,0.0,67,0.00,CLR,,0.00,WeatherDisplay:10.37,2014-01-28 13:40:00,
2014-01-28 07:45:00,-12.3,-20.2,29.53,SW,225,2.3,2.3,67,0.00,CLR,,0.00,WeatherDisplay:10.37,2014-01-28 13:45:00,
2014-01-28 07:50:00,-11.4,-19.3,29.53,SW,225,3.5,3.5,67,0.00,CLR,,0.00,WeatherDisplay:10.37,2014-01-28 13:50:00,
2014-01-28 07:55:00,-11.2,-19.1,29.53,SW,225,0.0,0.0,67,0.00,CLR,,0.00,WeatherDisplay:10.37,2014-01-28 13:55:00,
2014-01-28 08:00:00,-10.3,-18.3,29.50,SW,225,2.4,2.4,67,0.00,CLR,,0.00,WeatherDisplay:10.37,2014-01-28 14:00:00,
2014-01-28 08:05:00,-9.6,-17.6,29.50,SSW,202,1.2,0.0,67,0.00,CLR,,0.00,WeatherDisplay:10.37,2014-01-28 14:05:00,
2014-01-28 08:10:00,-8.9,-16.9,29.50,SW,225,1.6,1.6,67,0.00,CLR,,0.00,WeatherDisplay:10.37,2014-01-28 14:10:00,
2014-01-28 08:15:00,-7.8,-15.8,29.50,WSW,248,3.5,3.5,67,0.00,CLR,,0.00,WeatherDisplay:10.37,2014-01-28 14:15:00,
2014-01-28 08:20:00,-6.9,-15.0,29.50,SSW,202,3.5,3.5,67,0.00,CLR,,0.00,WeatherDisplay:10.37,2014-01-28 14:20:00,
2014-01-28 08:25:00,-6.5,-14.6,29.50,SSW,202,3.5,3.5,67,0.00,CLR,,0.00,WeatherDisplay:10.37,2014-01-28 14:25:00,
2014-01-28 08:30:00,-5.4,-13.6,29.50,SSW,202,3.5,3.5,67,0.00,CLR,,0.00,WeatherDisplay:10.37,2014-01-28 14:30:00,
2014-01-28 08:35:00,-4.4,-12.6,29.50,SW,225,4.6,4.6,67,0.00,CLR,,0.00,WeatherDisplay:10.37,2014-01-28 14:35:00,
2014-01-28 08:40:00,-3.3,-11.5,29.50,SSW,202,4.6,4.6,67,0.00,CLR,,0.00,WeatherDisplay:10.37,2014-01-28 14:40:00,
2014-01-28 08:45:00,-2.2,-10.5,29.53,WSW,248,5.8,5.8,67,0.00,CLR,,0.00,WeatherDisplay:10.37,2014-01-28 14:45:00,
2014-01-28 08:50:00,-0.9,-9.3,29.53,SW,225,4.6,4.6,67,0.00,CLR,,0.00,WeatherDisplay:10.37,2014-01-28 14:50:00,
2014-01-28 08:55:00,0.3,-8.1,29.53,WSW,248,5.6,5.6,67,0.00,CLR,,0.00,WeatherDisplay:10.37,2014-01-28 14:55:00,
2014-01-28 09:00:00,1.0,-7.4,29.50,WNW,292,6.9,6.9,67,0.00,CLR,,0.00,WeatherDisplay:10.37,2014-01-28 15:00:00,
2014-01-28 09:05:00,1.9,-6.5,29.50,WSW,248,8.1,8.1,67,0.00,CLR,,0.00,WeatherDisplay:10.37,2014-01-28 15:05:00,
2014-01-28 09:10:00,2.8,-5.6,29.50,SSW,202,6.9,6.9,67,0.00,CLR,,0.00,WeatherDisplay:10.37,2014-01-28 15:10:00,
2014-01-28 09:15:00,3.4,-5.1,29.53,SW,225,6.9,6.9,67,0.00,CLR,,0.00,WeatherDisplay:10.37,2014-01-28 15:15:00,
2014-01-28 09:20:00,4.5,-4.1,29.53,WSW,248,8.1,8.1,67,0.00,CLR,,0.00,WeatherDisplay:10.37,2014-01-28 15:20:00,
2014-01-28 09:25:00,5.4,-3.2,29.53,West,270,3.6,3.6,67,0.00,CLR,,0.00,WeatherDisplay:10.37,2014-01-28 15:25:00,
2014-01-28 09:30:00,6.3,-2.4,29.53,NNW,338,8.1,8.1,67,0.00,CLR,,0.00,WeatherDisplay:10.37,2014-01-28 15:30:00,
2014-01-28 09:35:00,6.4,-2.2,29.53,West,270,8.1,8.1,67,0.00,CLR,,0.00,WeatherDisplay:10.37,2014-01-28 15:35:00,
2014-01-28 09:40:00,7.3,-1.3,29.53,NW,315,10.4,10.4,67,0.00,CLR,,0.00,WeatherDisplay:10.37,2014-01-28 15:40:00,
2014-01-28 09:45:00,8.8,0.0,29.53,WNW,292,11.5,11.5,67,0.00,CLR,,0.00,WeatherDisplay:10.37,2014-01-28 15:45:00,
2014-01-28 09:50:00,8.8,0.0,29.53,SW,225,8.1,8.1,67,0.00,CLR,,0.00,WeatherDisplay:10.37,2014-01-28 15:50:00,
2014-01-28 09:55:00,8.8,0.0,29.53,NW,315,9.2,9.2,67,0.00,CLR,,0.00,WeatherDisplay:10.37,2014-01-28 15:55:00,
2014-01-28 10:00:00,10.2,1.4,29.50,NW,315,6.9,6.9,67,0.00,CLR,,0.00,WeatherDisplay:10.37,2014-01-28 16:00:00,
2014-01-28 10:05:00,10.0,1.3,29.50,West,270,10.4,10.4,67,0.00,CLR,,0.00,WeatherDisplay:10.37,2014-01-28 16:05:00,
2014-01-28 10:10:00,10.9,2.1,29.50,West,270,5.8,5.8,67,0.00,CLR,,0.00,WeatherDisplay:10.37,2014-01-28 16:10:00,
2014-01-28 10:15:00,11.1,2.3,29.50,WNW,292,9.2,9.2,67,0.00,CLR,,0.00,WeatherDisplay:10.37,2014-01-28 16:15:00,
2014-01-28 10:20:00,11.8,3.0,29.50,WNW,292,8.1,8.1,67,0.00,CLR,,0.00,WeatherDisplay:10.37,2014-01-28 16:20:00,
2014-01-28 10:25:00,12.7,3.8,29.50,WNW,292,5.9,5.9,67,0.00,CLR,,0.00,WeatherDisplay:10.37,2014-01-28 16:25:00,
2014-01-28 10:30:00,12.9,4.0,29.50,NNW,338,9.2,9.2,67,0.00,CLR,,0.00,WeatherDisplay:10.37,2014-01-28 16:30:00,
2014-01-28 10:35:00,13.5,4.5,29.50,SW,225,6.9,6.9,67,0.00,CLR,,0.00,WeatherDisplay:10.37,2014-01-28 16:35:00,
2014-01-28 10:40:00,14.0,-2.1,29.50,SW,225,8.1,8.1,48,0.00,CLR,,0.00,WeatherDisplay:10.37,2014-01-28 16:40:00,
2014-01-28 10:45:00,13.8,-2.3,29.50,WSW,248,6.2,6.2,48,0.00,CLR,,0.00,WeatherDisplay:10.37,2014-01-28 16:45:00,
2014-01-28 10:50:00,14.0,-2.6,29.50,WNW,292,11.5,11.5,47,0.00,CLR,,0.00,WeatherDisplay:10.37,2014-01-28 16:50:00,
2014-01-28 10:55:00,14.4,-2.2,29.50,NW,315,5.8,5.8,47,0.00,CLR,,0.00,WeatherDisplay:10.37,2014-01-28 16:55:00,
2014-01-28 11:00:00,15.3,-1.4,29.50,WSW,248,9.2,9.2,47,0.00,CLR,,0.00,WeatherDisplay:10.37,2014-01-28 17:00:00,
2014-01-28 11:05:00,16.0,-0.7,29.50,WSW,248,12.3,12.3,47,0.00,CLR,,0.00,WeatherDisplay:10.37,2014-01-28 17:05:00,
2014-01-28 11:10:00,15.3,-1.9,29.50,SSW,202,7.4,7.4,46,0.00,CLR,,0.00,WeatherDisplay:10.37,2014-01-28 17:10:00,
2014-01-28 11:15:00,15.3,-1.9,29.50,West,270,12.7,12.7,46,0.00,CLR,,0.00,WeatherDisplay:10.37,2014-01-28 17:15:00,
2014-01-28 11:20:00,17.1,-0.2,29.50,West,270,5.8,5.8,46,0.00,CLR,,0.00,WeatherDisplay:10.37,2014-01-28 17:20:00,
2014-01-28 11:25:00,15.8,-1.4,29.50,WSW,248,6.9,6.9,46,0.00,CLR,,0.00,WeatherDisplay:10.37,2014-01-28 17:25:00,
2014-01-28 11:30:00,16.5,-0.7,29.50,WNW,292,9.2,9.2,46,0.00,CLR,,0.00,WeatherDisplay:10.37,2014-01-28 17:30:00,
2014-01-28 11:35:00,17.1,-0.2,29.50,West,270,10.4,10.4,46,0.00,CLR,,0.00,WeatherDisplay:10.37,2014-01-28 17:35:00,
2014-01-28 11:40:00,17.8,0.0,29.50,West,270,9.8,9.8,45,0.00,CLR,,0.00,WeatherDisplay:10.37,2014-01-28 17:40:00,
2014-01-28 11:45:00,16.9,-0.8,29.47,West,270,8.1,8.1,45,0.00,CLR,,0.00,WeatherDisplay:10.37,2014-01-28 17:45:00,
2014-01-28 11:50:00,16.9,-0.8,29.47,WNW,292,8.1,8.1,45,0.00,CLR,,0.00,WeatherDisplay:10.37,2014-01-28 17:50:00,
2014-01-28 11:55:00,18.1,0.3,29.47,WNW,292,10.4,10.4,45,0.00,CLR,,0.00,WeatherDisplay:10.37,2014-01-28 17:55:00,
2014-01-28 12:00:00,17.4,-0.3,29.47,WNW,292,8.1,8.1,45,0.00,CLR,,0.00,WeatherDisplay:10.37,2014-01-28 18:00:00,
2014-01-28 12:05:00,17.8,0.0,29.47,WNW,292,12.7,12.7,45,0.00,CLR,,0.00,WeatherDisplay:10.37,2014-01-28 18:05:00,
2014-01-28 12:10:00,18.1,0.3,29.47,NW,315,10.9,10.9,45,0.00,CLR,,0.00,WeatherDisplay:10.37,2014-01-28 18:10:00,
2014-01-28 12:15:00,17.4,-0.3,29.44,SW,225,8.5,8.5,45,0.00,CLR,,0.00,WeatherDisplay:10.37,2014-01-28 18:15:00,
2014-01-28 12:20:00,17.1,-0.7,29.44,West,270,12.7,12.7,45,0.00,CLR,,0.00,WeatherDisplay:10.37,2014-01-28 18:20:00,
2014-01-28 12:25:00,17.6,-0.2,29.44,WSW,248,10.4,10.4,45,0.00,CLR,,0.00,WeatherDisplay:10.37,2014-01-28 18:25:00,
2014-01-28 12:30:00,18.0,-0.3,29.44,WSW,248,10.4,10.4,44,0.00,CLR,,0.00,WeatherDisplay:10.37,2014-01-28 18:30:00,
2014-01-28 12:35:00,18.1,-0.2,29.44,WNW,292,9.2,9.2,44,0.00,CLR,,0.00,WeatherDisplay:10.37,2014-01-28 18:35:00,
2014-01-28 12:40:00,18.3,0.0,29.44,WNW,292,9.2,9.2,44,0.00,CLR,,0.00,WeatherDisplay:10.37,2014-01-28 18:40:00,
2014-01-28 12:45:00,18.1,-0.2,29.44,NW,315,12.3,12.3,44,0.00,CLR,,0.00,WeatherDisplay:10.37,2014-01-28 18:45:00,
2014-01-28 12:50:00,18.9,1.0,29.44,West,270,10.0,10.0,45,0.00,CLR,,0.00,WeatherDisplay:10.37,2014-01-28 18:50:00,
2014-01-28 12:55:00,18.5,0.2,29.44,WNW,292,13.8,13.8,44,0.00,CLR,,0.00,WeatherDisplay:10.37,2014-01-28 18:55:00,
2014-01-28 13:00:00,18.1,-0.2,29.44,West,270,9.2,9.2,44,0.00,CLR,,0.00,WeatherDisplay:10.37,2014-01-28 19:00:00,
2014-01-28 13:05:00,19.2,0.8,29.44,NW,315,12.7,12.7,44,0.00,CLR,,0.00,WeatherDisplay:10.37,2014-01-28 19:05:00,
2014-01-28 13:10:00,19.4,1.0,29.44,West,270,9.2,9.2,44,0.00,CLR,,0.00,WeatherDisplay:10.37,2014-01-28 19:10:00,
2014-01-28 13:15:00,19.4,1.0,29.44,West,270,10.2,10.2,44,0.00,CLR,,0.00,WeatherDisplay:10.37,2014-01-28 19:15:00,
2014-01-28 13:20:00,18.7,0.3,29.44,West,270,11.5,11.5,44,0.00,CLR,,0.00,WeatherDisplay:10.37,2014-01-28 19:20:00,
2014-01-28 13:25:00,18.5,0.2,29.44,WNW,292,14.3,14.3,44,0.00,CLR,,0.00,WeatherDisplay:10.37,2014-01-28 19:25:00,
2014-01-28 13:30:00,18.3,0.0,29.41,NW,315,15.0,15.0,44,0.00,CLR,,0.00,WeatherDisplay:10.37,2014-01-28 19:30:00,
2014-01-28 13:35:00,18.7,0.3,29.41,West,270,10.4,10.4,44,0.00,CLR,,0.00,WeatherDisplay:10.37,2014-01-28 19:35:00,
2014-01-28 13:40:00,17.8,-0.5,29.41,WNW,292,8.7,8.7,44,0.00,CLR,,0.00,WeatherDisplay:10.37,2014-01-28 19:40:00,
2014-01-28 13:45:00,17.4,-0.3,29.41,SW,225,8.1,8.1,45,0.00,CLR,,0.00,WeatherDisplay:10.37,2014-01-28 19:45:00,
2014-01-28 13:50:00,18.5,0.2,29.41,SW,225,10.4,10.4,44,0.00,CLR,,0.00,WeatherDisplay:10.37,2014-01-28 19:50:00,
2014-01-28 13:55:00,18.0,-0.3,29.41,WNW,292,8.1,8.1,44,0.00,CLR,,0.00,WeatherDisplay:10.37,2014-01-28 19:55:00,
2014-01-28 14:00:00,17.6,-0.2,29.38,West,270,10.4,10.4,45,0.00,CLR,,0.00,WeatherDisplay:10.37,2014-01-28 20:00:00,
2014-01-28 14:05:00,19.6,1.2,29.38,WSW,248,8.1,8.1,44,0.00,CLR,,0.00,WeatherDisplay:10.37,2014-01-28 20:05:00,
2014-01-28 14:10:00,19.8,1.3,29.38,WSW,248,9.2,9.2,44,0.00,CLR,,0.00,WeatherDisplay:10.37,2014-01-28 20:10:00,
2014-01-28 14:15:00,19.9,1.5,29.38,WSW,248,15.0,15.0,44,0.00,CLR,,0.00,WeatherDisplay:10.37,2014-01-28 20:15:00,
2014-01-28 14:20:00,18.1,-0.2,29.38,WSW,248,12.7,12.7,44,0.00,CLR,,0.00,WeatherDisplay:10.37,2014-01-28 20:20:00,
2014-01-28 14:26:00,19.2,0.8,29.38,WSW,248,8.1,8.1,44,0.00,CLR,,0.00,WeatherDisplay:10.37,2014-01-28 20:26:00,
2014-01-28 14:31:00,19.0,0.7,29.38,SW,225,6.4,6.4,44,0.00,CLR,,0.00,WeatherDisplay:10.37,2014-01-28 20:31:00,
2014-01-28 14:36:00,19.4,1.0,29.38,West,270,10.4,10.4,44,0.00,CLR,,0.00,WeatherDisplay:10.37,2014-01-28 20:36:00,
2014-01-28 14:41:00,19.4,1.0,29.38,WNW,292,12.7,12.7,44,0.00,CLR,,0.00,WeatherDisplay:10.37,2014-01-28 20:41:00,
2014-01-28 14:46:00,19.2,0.8,29.38,WSW,248,10.4,10.4,44,0.00,CLR,,0.00,WeatherDisplay:10.37,2014-01-28 20:46:00,
2014-01-28 14:51:00,17.2,-1.0,29.38,WNW,292,8.1,8.1,44,0.00,CLR,,0.00,WeatherDisplay:10.37,2014-01-28 20:51:00,
2014-01-28 14:56:00,18.3,0.0,29.38,WNW,292,8.1,8.1,44,0.00,CLR,,0.00,WeatherDisplay:10.37,2014-01-28 20:56:00,
2014-01-28 15:01:00,18.5,0.2,29.38,NW,315,9.8,9.8,44,0.00,CLR,,0.00,WeatherDisplay:10.37,2014-01-28 21:01:00,
2014-01-28 15:06:00,16.7,-1.5,29.38,NW,315,8.1,8.1,44,0.00,CLR,,0.00,WeatherDisplay:10.37,2014-01-28 21:06:00,
2014-01-28 15:11:00,17.2,-1.0,29.38,NNW,338,8.1,8.1,44,0.00,CLR,,0.00,WeatherDisplay:10.37,2014-01-28 21:11:00,
2014-01-28 15:16:00,17.4,-0.8,29.38,WNW,292,10.5,10.5,44,0.00,CLR,,0.00,WeatherDisplay:10.37,2014-01-28 21:16:00,
2014-01-28 15:21:00,16.9,-0.8,29.38,NW,315,6.9,7.4,45,0.00,CLR,,0.00,WeatherDisplay:10.37,2014-01-28 21:21:00,
2014-01-28 15:26:00,16.9,-0.8,29.38,West,270,6.2,6.2,45,0.00,CLR,,0.00,WeatherDisplay:10.37,2014-01-28 21:26:00,
2014-01-28 15:31:00,18.1,-0.2,29.38,WNW,292,4.6,4.6,44,0.00,CLR,,0.00,WeatherDisplay:10.37,2014-01-28 21:31:00,
2014-01-28 15:36:00,17.2,-1.0,29.38,WNW,292,8.1,8.1,44,0.00,CLR,,0.00,WeatherDisplay:10.37,2014-01-28 21:36:00,
2014-01-28 15:41:00,16.7,-1.5,29.38,WSW,248,11.5,11.5,44,0.00,CLR,,0.00,WeatherDisplay:10.37,2014-01-28 21:41:00,
2014-01-28 15:46:00,16.2,-2.0,29.38,West,270,10.4,10.4,44,0.00,CLR,,0.00,WeatherDisplay:10.37,2014-01-28 21:46:00,
2014-01-28 15:51:00,16.0,-2.1,29.38,WSW,248,9.2,9.2,44,0.00,CLR,,0.00,WeatherDisplay:10.37,2014-01-28 21:51:00,
2014-01-28 15:56:00,15.3,-2.3,29.38,WSW,248,8.1,8.1,45,0.00,CLR,,0.00,WeatherDisplay:10.37,2014-01-28 21:56:00,
2014-01-28 16:01:00,14.9,-2.6,29.38,WSW,248,5.8,5.8,45,0.00,CLR,,0.00,WeatherDisplay:10.37,2014-01-28 22:01:00,
2014-01-28 16:06:00,14.5,-3.0,29.38,WSW,248,10.4,10.4,45,0.00,CLR,,0.00,WeatherDisplay:10.37,2014-01-28 22:06:00,
2014-01-28 16:11:00,13.5,-4.0,29.38,West,270,7.1,7.1,45,0.00,CLR,,0.00,WeatherDisplay:10.37,2014-01-28 22:11:00,
2014-01-28 16:16:00,12.7,-4.6,29.35,West,270,4.6,4.6,45,0.00,CLR,,0.00,WeatherDisplay:10.37,2014-01-28 22:16:00,
2014-01-28 16:21:00,12.2,-5.1,29.35,West,270,6.0,6.0,45,0.00,CLR,,0.00,WeatherDisplay:10.37,2014-01-28 22:21:00,
2014-01-28 16:26:00,11.8,-5.5,29.35,West,270,5.8,5.8,45,0.00,CLR,,0.00,WeatherDisplay:10.37,2014-01-28 22:26:00,
2014-01-28 16:31:00,11.5,-5.8,29.38,West,270,5.8,5.8,45,0.00,CLR,,0.00,WeatherDisplay:10.37,2014-01-28 22:31:00,
2014-01-28 16:36:00,11.3,-6.0,29.38,WSW,248,6.9,6.9,45,0.00,CLR,,0.00,WeatherDisplay:10.37,2014-01-28 22:36:00,
2014-01-28 16:41:00,10.8,-6.5,29.38,WSW,248,5.8,5.8,45,0.00,CLR,,0.00,WeatherDisplay:10.37,2014-01-28 22:41:00,
2014-01-28 16:46:00,10.4,-6.8,29.38,SW,225,5.8,5.8,45,0.00,CLR,,0.00,WeatherDisplay:10.37,2014-01-28 22:46:00,
2014-01-28 16:51:00,10.0,-7.1,29.38,West,270,5.8,5.8,45,0.00,CLR,,0.00,WeatherDisplay:10.37,2014-01-28 22:51:00,
2014-01-28 16:56:00,9.7,-7.4,29.38,WSW,248,3.5,3.5,45,0.00,CLR,,0.00,WeatherDisplay:10.37,2014-01-28 22:56:00,
2014-01-28 17:01:00,9.3,-7.8,29.38,WSW,248,4.6,4.6,45,0.00,CLR,,0.00,WeatherDisplay:10.37,2014-01-28 23:01:00,
2014-01-28 17:06:00,8.8,-8.3,29.38,WSW,248,3.5,3.5,45,0.00,CLR,,0.00,WeatherDisplay:10.37,2014-01-28 23:06:00,
2014-01-28 17:11:00,8.6,-8.4,29.38,WSW,248,3.3,3.3,45,0.00,CLR,,0.00,WeatherDisplay:10.37,2014-01-28 23:11:00,
2014-01-28 17:16:00,8.1,-8.9,29.38,WSW,248,2.3,2.3,45,0.00,CLR,,0.00,WeatherDisplay:10.37,2014-01-28 23:16:00,
2014-01-28 17:21:00,7.9,-9.1,29.38,South,180,3.5,3.5,45,0.00,CLR,,0.00,WeatherDisplay:10.37,2014-01-28 23:21:00,
2014-01-28 17:26:00,7.7,-9.3,29.38,WSW,248,2.3,2.3,45,0.00,CLR,,0.00,WeatherDisplay:10.37,2014-01-28 23:26:00,
2014-01-28 17:31:00,7.2,-9.8,29.35,SW,225,1.4,1.4,45,0.00,CLR,,0.00,WeatherDisplay:10.37,2014-01-28 23:31:00,
2014-01-28 17:36:00,6.8,-10.1,29.35,SW,225,3.5,3.5,45,0.00,CLR,,0.00,WeatherDisplay:10.37,2014-01-28 23:36:00,
2014-01-28 17:41:00,6.8,-10.1,29.35,SSW,202,2.2,2.2,45,0.00,CLR,,0.00,WeatherDisplay:10.37,2014-01-28 23:41:00,
2014-01-28 17:46:00,6.4,-10.4,29.35,SSW,202,1.6,1.6,45,0.00,CLR,,0.00,WeatherDisplay:10.37,2014-01-28 23:46:00,
2014-01-28 17:51:00,6.1,-10.8,29.35,SSW,202,2.0,2.0,45,0.00,CLR,,0.00,WeatherDisplay:10.37,2014-01-28 23:51:00,
2014-01-28 17:56:00,5.9,-10.9,29.35,SSW,202,2.3,2.3,45,0.00,CLR,,0.00,WeatherDisplay:10.37,2014-01-28 23:56:00,
2014-01-28 18:01:00,5.5,-11.3,29.38,SSW,202,2.3,2.3,45,0.00,CLR,,0.00,WeatherDisplay:10.37,2014-01-29 00:01:00,
2014-01-28 18:06:00,5.4,-11.4,29.38,SSW,202,2.3,2.3,45,0.00,CLR,,0.00,WeatherDisplay:10.37,2014-01-29 00:06:00,
2014-01-28 18:11:00,5.0,-11.7,29.38,SW,225,1.4,1.4,45,0.00,CLR,,0.00,WeatherDisplay:10.37,2014-01-29 00:11:00,
2014-01-28 18:16:00,4.8,-11.9,29.38,South,180,2.3,2.3,45,0.00,CLR,,0.00,WeatherDisplay:10.37,2014-01-29 00:16:00,
2014-01-28 18:21:00,4.5,-12.2,29.38,SSW,202,1.6,1.6,45,0.00,CLR,,0.00,WeatherDisplay:10.37,2014-01-29 00:21:00,
2014-01-28 18:26:00,4.3,-12.4,29.38,SSW,202,2.9,2.9,45,0.00,CLR,,0.00,WeatherDisplay:10.37,2014-01-29 00:26:00,
2014-01-28 18:29:00,4.3,-12.4,29.38,SSW,202,2.3,2.3,45,0.00,CLR,,0.00,WeatherDisplay:10.37,2014-01-29 00:29:00,
2014-01-28 18:34:00,4.5,-12.2,29.38,SSW,202,1.2,1.2,45,0.00,CLR,,0.00,WeatherDisplay:10.37,2014-01-29 00:34:00,
2014-01-28 18:39:00,3.7,-12.9,29.38,SSW,202,1.4,1.4,45,0.00,CLR,,0.00,WeatherDisplay:10.37,2014-01-29 00:39:00,
2014-01-28 18:44:00,3.0,-13.6,29.35,SSW,202,1.4,1.4,45,0.00,CLR,,0.00,WeatherDisplay:10.37,2014-01-29 00:44:00,
2014-01-28 18:49:00,2.8,-13.7,29.35,South,180,2.3,2.3,45,0.00,CLR,,0.00,WeatherDisplay:10.37,2014-01-29 00:49:00,
2014-01-28 18:54:00,3.0,-13.6,29.35,SSW,202,2.0,2.0,45,0.00,CLR,,0.00,WeatherDisplay:10.37,2014-01-29 00:54:00,
2014-01-28 18:59:00,2.7,-13.9,29.35,SSW,202,2.3,2.3,45,0.00,CLR,,0.00,WeatherDisplay:10.37,2014-01-29 00:59:00,
2014-01-28 19:04:00,2.5,-14.1,29.35,South,180,1.6,1.6,45,0.00,CLR,,0.00,WeatherDisplay:10.37,2014-01-29 01:04:00,
2014-01-28 19:09:00,1.9,-14.6,29.35,SSW,202,0.0,0.0,45,0.00,CLR,,0.00,WeatherDisplay:10.37,2014-01-29 01:09:00,
2014-01-28 19:14:00,1.9,-14.6,29.35,SSW,202,1.2,1.2,45,0.00,CLR,,0.00,WeatherDisplay:10.37,2014-01-29 01:14:00,
2014-01-28 19:19:00,1.4,-15.1,29.35,SSW,202,2.3,2.3,45,0.00,CLR,,0.00,WeatherDisplay:10.37,2014-01-29 01:19:00,
2014-01-28 19:24:00,1.4,-15.1,29.35,SSW,202,0.0,0.0,45,0.00,CLR,,0.00,WeatherDisplay:10.37,2014-01-29 01:24:00,
2014-01-28 19:29:00,1.2,-15.2,29.32,SSW,202,1.2,0.0,45,0.00,CLR,,0.00,WeatherDisplay:10.37,2014-01-29 01:29:00,
2014-01-28 19:34:00,1.4,-15.1,29.32,SSW,202,1.4,1.4,45,0.00,CLR,,0.00,WeatherDisplay:10.37,2014-01-29 01:34:00,
2014-01-28 19:39:00,1.2,-15.2,29.32,South,180,3.1,3.1,45,0.00,CLR,,0.00,WeatherDisplay:10.37,2014-01-29 01:39:00,
2014-01-28 19:44:00,1.2,-15.2,29.32,SSW,202,2.3,2.3,45,0.00,CLR,,0.00,WeatherDisplay:10.37,2014-01-29 01:44:00,
2014-01-28 19:49:00,1.2,-15.2,29.32,South,180,2.4,2.4,45,0.00,CLR,,0.00,WeatherDisplay:10.37,2014-01-29 01:49:00,
2014-01-28 19:54:00,1.6,-14.9,29.32,SSW,202,2.3,2.3,45,0.00,CLR,,0.00,WeatherDisplay:10.37,2014-01-29 01:54:00,
2014-01-28 19:59:00,1.8,-14.7,29.35,SSW,202,1.6,1.6,45,0.00,CLR,,0.00,WeatherDisplay:10.37,2014-01-29 01:59:00,
2014-01-28 20:04:00,1.6,-14.9,29.35,SSW,202,2.3,2.3,45,0.00,CLR,,0.00,WeatherDisplay:10.37,2014-01-29 02:04:00,
2014-01-28 20:09:00,1.4,-15.1,29.35,SSW,202,1.2,1.2,45,0.00,CLR,,0.00,WeatherDisplay:10.37,2014-01-29 02:09:00,
2014-01-28 20:14:00,1.6,-14.9,29.35,SSW,202,1.2,1.4,45,0.00,CLR,,0.00,WeatherDisplay:10.37,2014-01-29 02:14:00,
2014-01-28 20:19:00,1.2,-15.2,29.35,SSW,202,0.0,0.0,45,0.00,CLR,,0.00,WeatherDisplay:10.37,2014-01-29 02:19:00,
2014-01-28 20:24:00,0.3,-16.1,29.35,SSW,202,0.0,0.0,45,0.00,CLR,,0.00,WeatherDisplay:10.37,2014-01-29 02:24:00,
2014-01-28 20:29:00,-0.2,-16.6,29.35,South,180,1.6,0.0,45,0.00,CLR,,0.00,WeatherDisplay:10.37,2014-01-29 02:29:00,
2014-01-28 20:34:00,-0.2,-16.6,29.35,South,180,0.0,0.0,45,0.00,CLR,,0.00,WeatherDisplay:10.37,2014-01-29 02:34:00,
2014-01-28 20:39:00,-0.8,-17.1,29.35,SSW,202,0.0,0.0,45,0.00,CLR,,0.00,WeatherDisplay:10.37,2014-01-29 02:39:00,
2014-01-28 20:44:00,-0.8,-17.1,29.35,SSW,202,0.0,0.0,45,0.00,CLR,,0.00,WeatherDisplay:10.37,2014-01-29 02:44:00,
2014-01-28 20:49:00,-0.9,-17.2,29.35,South,180,3.5,3.5,45,0.00,CLR,,0.00,WeatherDisplay:10.37,2014-01-29 02:49:00,
2014-01-28 20:54:00,-0.8,-17.1,29.35,South,180,2.3,2.3,45,0.00,CLR,,0.00,WeatherDisplay:10.37,2014-01-29 02:54:00,
2014-01-28 20:59:00,-1.1,-17.4,29.35,South,180,2.2,0.0,45,0.00,CLR,,0.00,WeatherDisplay:10.37,2014-01-29 02:59:00,
2014-01-28 21:04:00,-0.9,-17.2,29.35,SSW,202,2.6,2.6,45,0.00,CLR,,0.00,WeatherDisplay:10.37,2014-01-29 03:04:00,
2014-01-28 21:09:00,-0.4,-16.7,29.35,SSW,202,2.3,2.3,45,0.00,CLR,,0.00,WeatherDisplay:10.37,2014-01-29 03:09:00,
2014-01-28 21:14:00,-0.8,-17.1,29.35,SSW,202,2.2,0.0,45,0.00,CLR,,0.00,WeatherDisplay:10.37,2014-01-29 03:14:00,
2014-01-28 21:19:00,-0.9,-17.2,29.35,South,180,1.6,1.6,45,0.00,CLR,,0.00,WeatherDisplay:10.37,2014-01-29 03:19:00,
2014-01-28 21:24:00,-0.6,-16.9,29.35,South,180,2.3,2.3,45,0.00,CLR,,0.00,WeatherDisplay:10.37,2014-01-29 03:24:00,
2014-01-28 21:29:00,0.1,-16.2,29.35,SSW,202,1.4,1.4,45,0.00,CLR,,0.00,WeatherDisplay:10.37,2014-01-29 03:29:00,
2014-01-28 21:34:00,0.5,-15.9,29.35,SSW,202,3.5,3.5,45,0.00,CLR,,0.00,WeatherDisplay:10.37,2014-01-29 03:34:00,
2014-01-28 21:39:00,0.7,-15.7,29.35,SSW,202,2.9,2.9,45,0.00,CLR,,0.00,WeatherDisplay:10.37,2014-01-29 03:39:00,
2014-01-28 21:44:00,0.3,-16.1,29.35,SSW,202,1.2,1.2,45,0.00,CLR,,0.00,WeatherDisplay:10.37,2014-01-29 03:44:00,
2014-01-28 21:49:00,0.3,-16.1,29.35,SSW,202,2.4,2.4,45,0.00,CLR,,0.00,WeatherDisplay:10.37,2014-01-29 03:49:00,
2014-01-28 21:54:00,0.9,-15.6,29.35,SSW,202,2.3,2.3,45,0.00,CLR,,0.00,WeatherDisplay:10.37,2014-01-29 03:54:00,
2014-01-28 21:59:00,0.3,-16.1,29.35,SSW,202,1.4,1.4,45,0.00,CLR,,0.00,WeatherDisplay:10.37,2014-01-29 03:59:00,
2014-01-28 22:04:00,0.1,-16.2,29.35,SSW,202,2.3,2.3,45,0.00,CLR,,0.00,WeatherDisplay:10.37,2014-01-29 04:04:00,
2014-01-28 22:09:00,0.0,-16.4,29.35,SW,225,1.6,1.6,45,0.00,CLR,,0.00,WeatherDisplay:10.37,2014-01-29 04:09:00,
2014-01-28 22:14:00,0.1,-16.2,29.32,SSW,202,2.3,2.3,45,0.00,CLR,,0.00,WeatherDisplay:10.37,2014-01-29 04:14:00,
2014-01-28 22:19:00,0.5,-15.9,29.32,SSW,202,2.3,2.3,45,0.00,CLR,,0.00,WeatherDisplay:10.37,2014-01-29 04:19:00,
2014-01-28 22:24:00,0.3,-16.1,29.32,SW,225,1.2,1.2,45,0.00,CLR,,0.00,WeatherDisplay:10.37,2014-01-29 04:24:00,
2014-01-28 22:29:00,0.3,-16.1,29.35,SSW,202,2.3,2.3,45,0.00,CLR,,0.00,WeatherDisplay:10.37,2014-01-29 04:29:00,
2014-01-28 22:34:00,0.0,-16.4,29.35,SSW,202,2.3,2.3,45,0.00,CLR,,0.00,WeatherDisplay:10.37,2014-01-29 04:34:00,
2014-01-28 22:39:00,-0.2,-16.6,29.35,SSW,202,2.3,2.3,45,0.00,CLR,,0.00,WeatherDisplay:10.37,2014-01-29 04:39:00,
2014-01-28 22:44:00,-0.2,-16.6,29.32,SSW,202,1.6,1.6,45,0.00,CLR,,0.00,WeatherDisplay:10.37,2014-01-29 04:44:00,
2014-01-28 22:49:00,-0.4,-16.7,29.32,SSW,202,2.3,2.3,45,0.00,CLR,,0.00,WeatherDisplay:10.37,2014-01-29 04:49:00,
2014-01-28 22:54:00,-0.2,-16.6,29.32,South,180,2.0,2.0,45,0.00,CLR,,0.00,WeatherDisplay:10.37,2014-01-29 04:54:00,
2014-01-28 22:59:00,0.0,-16.4,29.32,South,180,2.3,2.3,45,0.00,CLR,,0.00,WeatherDisplay:10.37,2014-01-29 04:59:00,
2014-01-28 23:01:00,0.0,-16.4,29.32,SSW,202,2.3,2.3,45,0.00,CLR,,0.00,WeatherDisplay:10.37,2014-01-29 05:01:00,
2014-01-28 23:02:00,0.0,-16.4,29.32,SSW,202,2.3,2.3,45,0.00,CLR,,0.00,WeatherDisplay:10.37,2014-01-29 05:02:00,
2014-01-28 23:07:00,0.1,-16.2,29.32,SW,225,3.5,3.5,45,0.00,CLR,,0.00,WeatherDisplay:10.37,2014-01-29 05:07:00,
2014-01-28 23:12:00,0.0,-16.4,29.32,SW,225,1.6,1.6,45,0.00,CLR,,0.00,WeatherDisplay:10.37,2014-01-29 05:12:00,
2014-01-28 23:17:00,-0.6,-16.9,29.32,SSW,202,1.2,1.2,45,0.00,CLR,,0.00,WeatherDisplay:10.37,2014-01-29 05:17:00,
2014-01-28 23:22:00,-0.8,-17.1,29.32,SSW,202,2.3,2.3,45,0.00,CLR,,0.00,WeatherDisplay:10.37,2014-01-29 05:22:00,
2014-01-28 23:27:00,-0.9,-17.2,29.32,SSW,202,2.4,2.4,45,0.00,CLR,,0.00,WeatherDisplay:10.37,2014-01-29 05:27:00,
2014-01-28 23:32:00,-1.1,-17.4,29.32,SSW,202,2.3,2.3,45,0.00,CLR,,0.00,WeatherDisplay:10.37,2014-01-29 05:32:00,
2014-01-28 23:37:00,-0.9,-17.2,29.32,SSW,202,2.4,2.4,45,0.00,CLR,,0.00,WeatherDisplay:10.37,2014-01-29 05:37:00,
2014-01-28 23:42:00,-1.1,-17.4,29.32,SSW,202,1.2,1.2,45,0.00,CLR,,0.00,WeatherDisplay:10.37,2014-01-29 05:42:00,
2014-01-28 23:47:00,-1.5,-17.7,29.29,SSW,202,2.3,2.3,45,0.00,CLR,,0.00,WeatherDisplay:10.37,2014-01-29 05:47:00,
2014-01-28 23:52:00,-1.7,-17.9,29.29,South,180,2.3,2.3,45,0.00,CLR,,0.00,WeatherDisplay:10.37,2014-01-29 05:52:00,
2014-01-28 23:57:00,-1.7,-17.9,29.29,SSW,202,2.3,2.3,45,0.00,CLR,,0.00,WeatherDisplay:10.37,2014-01-29 05:57:00,